Flag for Poland Weather past 2 weeks in Poznan, Poland

Now
55 °F

Sunny.


Feels Like: 55 °F
Forecast: 45 / 52 °F
Wind: 5 mph from South

Location: Poznan Airport

Current Time: Oct 21, 2014 at 6:59:02 PM

Latest Report: Oct 21, 2014 at 6:30 PM


Visibility: 10 mi

Pressure: 29.62 "Hg

Humidity: 82%

Dew point: 50 °F

Location of PoznanLocation

Historic Weather in Poznan — Graph

°F

Poznan temperature yesterday

Maximum temperature yesterday: 63 °F (at 1:30 AM)
Minimum temperature yesterday: 52 °F (at 11:30 PM)
Average temperature yesterday: 58 °F

Past Weeks' High & Low Weather Summary

 TemperatureHumidityPressure
High75 °F (Oct 9, 3:30 PM)100% (Oct 10, 2:30 AM)30.27 "Hg (Oct 10, 2:30 AM)
Low46 °F (Oct 16, 2:30 AM)48% (Oct 6, 5:00 PM)29.65 "Hg (Oct 21, 5:00 PM)
Average58 °F85%29.90 "Hg
* Reported Oct 6 5:00 PM — Oct 21 5:30 PM, Poznan, Weather by CustomWeather, © 2014

Note: Actual official high and low records may vary slightly from our data, if they occured in-between our weather recording intervals... More about our weather records

Advertising

Poznan weather history for previous 24 hours

 ConditionsComfort  
Time TempWeatherWind HumidityBarometerVisibility
5:30 PM
Oct 21
57 °FScattered clouds.6 mph77%29.65 "HgN/A
5:00 PM57 °FSunny.5 mph77%29.65 "Hg10 mi
4:30 PM57 °FPassing clouds.6 mph77%29.68 "HgN/A
4:00 PM57 °FScattered clouds.5 mph77%29.68 "HgN/A
3:30 PM57 °FScattered clouds.7 mph77%29.68 "HgN/A
3:00 PM57 °FPassing clouds.6 mph77%29.71 "HgN/A
2:30 PM57 °FScattered clouds.8 mph72%29.71 "HgN/A
2:00 PM57 °FPartly sunny.6 mph77%29.74 "HgN/A
1:30 PM55 °FScattered clouds.6 mph82%29.74 "HgN/A
1:00 PM55 °FBroken clouds.7 mph82%29.77 "HgN/A
12:30 PM55 °FScattered clouds.9 mph82%29.77 "HgN/A
12:00 PM54 °FPartly sunny.8 mph88%29.77 "HgN/A
11:30 AM54 °FPartly sunny.6 mph88%29.80 "HgN/A
11:00 AM54 °FLight rain. Partly sunny.7 mph88%29.80 "HgN/A
10:30 AM54 °FPartly sunny.6 mph88%29.80 "HgN/A
10:00 AM52 °FPartly sunny.7 mph94%29.80 "HgN/A
9:30 AM52 °FPartly sunny.8 mph94%29.80 "HgN/A
9:00 AM52 °FPassing clouds.6 mph94%29.80 "HgN/A
8:30 AM52 °FPartly sunny.6 mph94%29.80 "HgN/A
8:00 AM52 °FLight rain. Partly cloudy.7 mph94%29.80 "Hg5 mi
7:30 AM52 °FPassing clouds.6 mph94%29.80 "Hg5 mi
7:00 AM52 °FLight rain. Passing clouds.7 mph94%29.80 "HgN/A
6:30 AM52 °FLight rain. Passing clouds.7 mph94%29.80 "HgN/A
6:00 AM52 °FLight rain. Passing clouds.8 mph94%29.80 "HgN/A
5:00 AM52 °FSprinkles. Passing clouds.6 mph94%29.83 "HgN/A
4:30 AM52 °FSprinkles. Partly cloudy.6 mph94%29.83 "HgN/A
4:00 AM52 °FClear.7 mph94%29.83 "Hg10 mi
3:30 AM52 °FClear.6 mph94%29.83 "Hg10 mi
3:00 AM52 °FClear.7 mph94%29.83 "Hg10 mi
2:30 AM52 °FClear.7 mph94%29.83 "Hg10 mi
2:00 AM52 °FClear.8 mph94%29.83 "Hg10 mi
1:30 AM52 °FClear.9 mph94%29.83 "Hg10 mi
1:00 AM52 °FPassing clouds.8 mph94%29.83 "HgN/A
12:30 AM52 °FPassing clouds.8 mph94%29.86 "HgN/A
12:00 AM52 °FPassing clouds.8 mph94%29.86 "HgN/A
11:30 PM
Oct 20
52 °FPassing clouds.8 mph94%29.86 "HgN/A
11:00 PM54 °FClear.12 mph88%29.86 "Hg10 mi
10:30 PM54 °FPassing clouds.9 mph94%29.86 "HgN/A
10:00 PM54 °FPartly cloudy.9 mph94%29.86 "HgN/A
9:30 PM54 °FPartly cloudy.9 mph88%29.86 "HgN/A
9:00 PM54 °FClear.13 mph88%29.83 "Hg10 mi
8:30 PM54 °FClear.10 mph88%29.86 "Hg10 mi
8:00 PM55 °FClear.14 mph82%29.86 "Hg10 mi
7:30 PM54 °FClear.10 mph88%29.83 "Hg10 mi
7:00 PM54 °FSprinkles. Passing clouds.12 mph88%29.86 "HgN/A
6:30 PM55 °FSprinkles. Scattered clouds.14 mph88%29.86 "HgN/A
6:00 PM55 °FSprinkles. Partly sunny.13 mph94%29.86 "Hg4 mi
Weather by CustomWeather, © 2014

See weather overviewHow to use our weather pages